Baton Rouge, LA

4:13 PM CST on December 07, 2019 (GMT -0600)
Baton Rouge Metro-Ryan

Weather History for KBTR - November, 2019

Change the Weather History Date:

Friday, November 15, 2019

  Actual Average Record
Temperature  
Mean Temperature 49 °F 60 °F  
Max Temperature 61 °F 72 °F 86 °F (1910)
Min Temperature 37 °F 49 °F 22 °F (1940)
Degree Days  
Heating Degree Days 16 6  
Month to date heating degree days 169 70  
Since 1 July heating degree days 198 116  
Cooling Degree Days 0 2  
Month to date cooling degree days 9 34  
Year to date cooling degree days 3123 2784  
Moisture  
Dew Point 35 °F    
Average Humidity 64    
Maximum Humidity 92    
Minimum Humidity 36    
Precipitation  
Precipitation 0.00 in 0.13 in 3.06 in (2011)
Month to date precipitation 0.16 2.07  
Year to date precipitation 59.72 53.02  
Snow  
Snow 0.00 in - - ()
Month to date snowfall 0.0  
Since 1 July snowfall 0.0  
Since 1 September snowfall 0.0  
Snow Depth 0.00 in    
Sea Level Pressure  
Sea Level Pressure 30.27 in    
Wind  
Wind Speed 6 mph (NNW)    
Max Wind Speed 18 mph    
Max Gust Speed 25 mph    
Visibility 10 miles    
Events      
T = Trace of Precipitation, MM = Missing Value Source: NWS Daily Summary

Daily Weather History Graph

Daily Weather History Graph

Search for Another Location

Airport or City:

Astronomy

Nov. 15, 2019 Rise Set
Actual Time 6:30 AM CST 5:07 PM CST
Civil Twilight 6:04 AM CST 5:33 PM CST
Nautical Twilight 5:35 AM CST 6:02 PM CST
Astronomical Twilight 5:07 AM CST 6:30 PM CST
Moon 7:50 PM CST (11/15) 9:20 AM CST (11/15)
Length of Visible Light 11h 28m
Length of Day
10h 37m
Waning Gibbous, 90% of the Moon is Illuminated
Nov 15
Waning Gibbous
Nov 19
Last Quarter
Nov 26
New
Dec 4
First Quarter
Dec 11
Full

Hourly Weather History & Observations

Time (CST) Temp. Windchill Dew Point Humidity Pressure Visibility Wind Dir Wind Speed Gust Speed Precip Events Conditions
12:13 AM 44.1 °F 40.8 °F 39.9 °F 85% 30.30 in 10.0 mi North 5.8 mph - N/A   Mostly Cloudy
12:53 AM 43.0 °F 40.3 °F 39.9 °F 89% 30.30 in 10.0 mi NNW 4.6 mph - N/A   Clear
1:53 AM 42.1 °F 38.4 °F 39.0 °F 89% 30.29 in 10.0 mi North 5.8 mph - N/A   Clear
2:53 AM 41.0 °F 38.0 °F 37.9 °F 89% 30.28 in 10.0 mi North 4.6 mph - N/A   Clear
3:53 AM 39.9 °F - 37.9 °F 93% 30.28 in 10.0 mi Calm Calm - N/A   Clear
4:53 AM 39.0 °F 36.8 °F 37.0 °F 93% 30.29 in 10.0 mi NNW 3.5 mph - N/A   Clear
5:53 AM 39.0 °F 36.8 °F 37.0 °F 93% 30.30 in 9.0 mi NW 3.5 mph - N/A   Clear
7:53 AM 43.0 °F 38.2 °F 37.9 °F 82% 30.31 in 10.0 mi North 8.1 mph - N/A   Clear
8:53 AM 46.9 °F - 36.0 °F 66% 30.32 in 10.0 mi North 8.1 mph - N/A   Clear
9:53 AM 52.0 °F - 35.1 °F 53% 30.31 in 10.0 mi North 6.9 mph - N/A   Clear
10:53 AM 55.0 °F - 32.0 °F 42% 30.29 in 10.0 mi North 13.8 mph 18.4 mph N/A   Clear
11:53 AM 57.9 °F - 33.1 °F 39% 30.27 in 10.0 mi NNW 9.2 mph - N/A   Clear
12:53 PM 59.0 °F - 34.0 °F 39% 30.24 in 10.0 mi North 11.5 mph 17.3 mph N/A   Clear
1:53 PM 60.1 °F - 35.1 °F 39% 30.22 in 10.0 mi NNW 11.5 mph 18.4 mph N/A   Clear
2:53 PM 60.1 °F - 34.0 °F 38% 30.21 in 10.0 mi North 9.2 mph - N/A   Clear
3:53 PM 59.0 °F - 35.1 °F 41% 30.20 in 10.0 mi Variable 6.9 mph - N/A   Clear
4:53 PM 55.9 °F - 33.1 °F 42% 30.22 in 10.0 mi North 8.1 mph - N/A   Clear
5:53 PM 52.0 °F - 33.1 °F 49% 30.24 in 10.0 mi NNW 4.6 mph - N/A   Clear
6:53 PM 50.0 °F - 34.0 °F 54% 30.24 in 10.0 mi NNW 4.6 mph - N/A   Clear
7:53 PM 48.0 °F - 33.1 °F 56% 30.25 in 10.0 mi NNW 5.8 mph - N/A   Clear
8:53 PM 46.0 °F 43.9 °F 32.0 °F 58% 30.26 in 10.0 mi NNW 4.6 mph - N/A   Clear
9:53 PM 42.1 °F - 32.0 °F 67% 30.26 in 10.0 mi Calm Calm - N/A   Clear
10:53 PM 39.0 °F - 33.1 °F 79% 30.25 in 10.0 mi Calm Calm - N/A   Clear
11:53 PM 37.0 °F - 33.1 °F 86% 30.25 in 10.0 mi Calm Calm - N/A   Clear